Location: Newark
(35.8833°N, 14.5000°E)
Time: 16:14:37
(UTC+00:00)

Altair - Pass Details

Date: 21 November 2019
Orbit: 1502 x 1682 km, 47.2° (Epoch: 12 December)

Event Time Altitude Azimuth Distance (km) Brightness Sun altitude
Rises 01:04:59 0° 234° (SW) 4,669 - -55.9°
Reaches altitude 10° 01:08:01 10° 234° (SW) 3,672 - -55.3°
Maximum altitude 01:17:16 88° 323° (NW) 1,504 - -53.5°
Exits shadow 01:23:08 26° 55° (NE) 2,611 8.9 -52.4°
Drops below altitude 10° 01:26:29 10° 56° (NE) 3,662 9.9 -51.7°
Sets 01:29:31 0° 57° (ENE) 4,655 10.6 -51.1°
